Total_Precipitation_Accumulation
0.45 0.46 0.59 0.63 0.56 0.56 0.67 0.79 0.98 0.90 0.82 0.67 0.63 0.69 0.74 0.71 0.65 0.62 0.55 0.48 0.52 0.57 0.65 0.69 0.76 0.81 0.81 0.77 0.84 0.92 1.07 1.19 1.26 1.36 1.43 1.36 1.25 1.19 1.26 1.24 1.24 1.36 1.49 1.61
0.35 0.32 0.42 0.50 0.48 0.50 0.54 0.59 0.72 0.78 0.75 0.58 0.53 0.54 0.58 0.55 0.49 0.48 0.48 0.43 0.45 0.50 0.58 0.59 0.61 0.65 0.65 0.73 0.90 0.93 0.99 1.07 1.27 1.38 1.33 1.29 1.19 1.16 1.15 1.15 1.17 1.24 1.36 1.54
0.54 0.39 0.47 0.70 0.66 0.67 0.69 0.64 0.68 0.64 0.52 0.35 0.35 0.38 0.46 0.44 0.43 0.45 0.43 0.42 0.42 0.42 0.43 0.45 0.49 0.58 0.65 0.74 0.86 0.90 0.93 1.07 1.27 1.31 1.23 1.16 1.20 1.23 1.15 1.12 1.17 1.24 1.29 1.28
0.69 0.65 0.99 1.04 0.75 0.71 0.69 0.51 0.40 0.33 0.27 0.25 0.34 0.34 0.33 0.34 0.35 0.37 0.37 0.34 0.33 0.32 0.32 0.36 0.41 0.50 0.60 0.67 0.73 0.79 0.84 0.96 1.15 1.18 1.18 1.21 1.20 1.19 1.11 1.05 1.05 1.10 1.13 1.17
0.83 0.85 0.95 0.83 0.58 0.52 0.55 0.45 0.25 0.22 0.23 0.22 0.27 0.29 0.27 0.27 0.25 0.25 0.25 0.23 0.23 0.24 0.27 0.30 0.31 0.37 0.45 0.52 0.57 0.61 0.70 0.84 0.95 0.97 1.07 1.13 1.07 1.07 1.02 0.95 0.95 0.98 1.03 1.09
1.01 1.13 1.04 0.62 0.38 0.36 0.48 0.63 0.28 0.21 0.20 0.18 0.21 0.29 0.27 0.20 0.19 0.18 0.17 0.16 0.17 0.19 0.22 0.27 0.27 0.30 0.36 0.46 0.50 0.52 0.63 0.76 0.86 0.89 0.91 0.96 1.03 1.03 1.02 0.98 0.94 0.96 1.00 1.01
0.95 1.18 0.95 0.47 0.33 0.37 0.68 0.78 0.40 0.27 0.24 0.21 0.20 0.21 0.18 0.16 0.15 0.15 0.14 0.14 0.16 0.18 0.24 0.27 0.28 0.30 0.32 0.40 0.43 0.48 0.53 0.64 0.72 0.76 0.84 0.94 1.05 1.09 1.12 1.09 1.02 1.00 1.05 1.07
0.86 1.11 1.00 0.47 0.43 0.58 0.65 0.48 0.41 0.34 0.28 0.23 0.17 0.13 0.11 0.11 0.12 0.12 0.12 0.14 0.16 0.18 0.26 0.31 0.33 0.33 0.33 0.37 0.41 0.44 0.45 0.53 0.67 0.76 0.84 0.94 1.06 1.12 1.12 1.14 1.15 1.15 1.13 1.14
0.91 1.02 0.69 0.47 0.53 0.56 0.48 0.43 0.33 0.27 0.23 0.20 0.17 0.14 0.11 0.10 0.11 0.13 0.14 0.16 0.18 0.21 0.27 0.27 0.31 0.34 0.36 0.40 0.44 0.44 0.45 0.47 0.54 0.60 0.65 0.76 0.88 1.02 1.08 1.09 1.11 1.13 1.18 1.23
0.71 0.61 0.40 0.38 0.40 0.38 0.35 0.32 0.27 0.24 0.20 0.18 0.15 0.14 0.14 0.13 0.13 0.13 0.14 0.16 0.19 0.23 0.25 0.25 0.27 0.31 0.33 0.37 0.41 0.44 0.46 0.48 0.48 0.48 0.52 0.60 0.75 0.83 0.88 0.94 1.01 1.10 1.19 1.30
0.69 0.60 0.43 0.35 0.34 0.32 0.30 0.24 0.22 0.25 0.24 0.21 0.18 0.14 0.13 0.12 0.12 0.12 0.14 0.14 0.18 0.23 0.25 0.25 0.26 0.27 0.29 0.31 0.34 0.38 0.42 0.46 0.50 0.53 0.55 0.59 0.67 0.80 0.88 0.93 1.01 1.07 1.14 1.29
0.75 0.62 0.57 0.40 0.32 0.27 0.26 0.22 0.19 0.20 0.23 0.24 0.25 0.23 0.16 0.14 0.12 0.14 0.15 0.17 0.20 0.24 0.27 0.28 0.26 0.25 0.29 0.31 0.34 0.41 0.45 0.45 0.47 0.51 0.58 0.63 0.70 0.80 0.88 0.90 0.92 0.94 1.00 1.06
0.49 0.45 0.40 0.32 0.26 0.22 0.21 0.18 0.16 0.15 0.16 0.18 0.20 0.26 0.26 0.22 0.18 0.15 0.16 0.19 0.22 0.25 0.26 0.25 0.24 0.23 0.26 0.29 0.36 0.49 0.54 0.53 0.52 0.52 0.59 0.68 0.72 0.76 0.83 0.86 0.87 0.88 0.90 0.95
0.35 0.35 0.36 0.30 0.24 0.21 0.19 0.17 0.14 0.15 0.17 0.18 0.18 0.21 0.24 0.27 0.24 0.20 0.20 0.22 0.23 0.23 0.23 0.22 0.22 0.24 0.27 0.29 0.34 0.39 0.44 0.49 0.53 0.58 0.58 0.65 0.75 0.84 0.91 0.99 0.94 0.85 0.85 0.91
0.33 0.33 0.35 0.30 0.23 0.20 0.22 0.23 0.22 0.21 0.19 0.18 0.17 0.21 0.23 0.23 0.23 0.22 0.22 0.22 0.22 0.22 0.22 0.21 0.21 0.23 0.27 0.29 0.30 0.33 0.40 0.48 0.58 0.64 0.63 0.65 0.78 0.93 0.99 1.02 0.99 0.89 0.80 0.81
0.32 0.28 0.28 0.29 0.25 0.20 0.21 0.23 0.25 0.25 0.22 0.20 0.20 0.20 0.23 0.24 0.27 0.28 0.28 0.29 0.27 0.25 0.23 0.22 0.22 0.23 0.25 0.29 0.32 0.36 0.42 0.54 0.65 0.71 0.66 0.67 0.73 0.79 0.82 0.88 0.89 0.85 0.82 0.85
0.35 0.37 0.36 0.35 0.31 0.26 0.23 0.23 0.25 0.26 0.24 0.23 0.23 0.26 0.30 0.33 0.34 0.32 0.34 0.37 0.37 0.34 0.32 0.32 0.30 0.29 0.31 0.34 0.38 0.45 0.52 0.55 0.60 0.67 0.66 0.63 0.65 0.67 0.72 0.76 0.75 0.75 0.76 0.83
0.33 0.36 0.40 0.44 0.43 0.36 0.30 0.27 0.28 0.32 0.31 0.28 0.26 0.32 0.37 0.37 0.38 0.38 0.39 0.39 0.39 0.37 0.37 0.40 0.41 0.39 0.39 0.42 0.46 0.49 0.54 0.57 0.58 0.65 0.69 0.64 0.64 0.67 0.73 0.74 0.74 0.72 0.70 0.73
0.31 0.32 0.34 0.40 0.44 0.45 0.40 0.37 0.35 0.36 0.34 0.33 0.34 0.40 0.44 0.41 0.38 0.37 0.39 0.44 0.47 0.47 0.45 0.44 0.48 0.43 0.42 0.48 0.54 0.55 0.56 0.57 0.59 0.64 0.67 0.67 0.67 0.70 0.76 0.80 0.79 0.76 0.75 0.75
0.34 0.35 0.38 0.40 0.40 0.44 0.45 0.45 0.44 0.44 0.41 0.40 0.42 0.45 0.47 0.44 0.41 0.41 0.43 0.46 0.48 0.47 0.47 0.49 0.46 0.42 0.43 0.46 0.53 0.52 0.57 0.60 0.64 0.68 0.70 0.73 0.79 0.82 0.81 0.82 0.84 0.83 0.79 0.78
0.34 0.37 0.41 0.42 0.40 0.40 0.45 0.46 0.47 0.49 0.48 0.44 0.44 0.47 0.46 0.43 0.43 0.47 0.51 0.52 0.49 0.47 0.49 0.53 0.49 0.46 0.47 0.52 0.53 0.50 0.55 0.57 0.61 0.68 0.71 0.74 0.81 0.84 0.82 0.82 0.86 0.89 0.91 0.88
0.31 0.34 0.37 0.38 0.41 0.43 0.46 0.47 0.45 0.41 0.42 0.44 0.44 0.44 0.45 0.47 0.46 0.47 0.47 0.52 0.53 0.56 0.56 0.56 0.55 0.61 0.64 0.62 0.53 0.51 0.54 0.57 0.63 0.72 0.76 0.78 0.82 0.86 0.85 0.83 0.86 0.89 0.92 0.96
0.29 0.33 0.37 0.39 0.42 0.46 0.47 0.50 0.49 0.44 0.41 0.45 0.50 0.53 0.55 0.57 0.55 0.54 0.57 0.55 0.58 0.61 0.52 0.54 0.67 0.78 0.80 0.66 0.59 0.57 0.56 0.60 0.68 0.78 0.83 0.86 0.90 0.93 0.94 0.93 0.94 0.95 0.98 1.05
0.30 0.32 0.36 0.40 0.40 0.43 0.50 0.54 0.52 0.48 0.44 0.46 0.53 0.57 0.60 0.60 0.57 0.56 0.60 0.65 0.70 0.67 0.53 0.56 0.67 0.76 0.77 0.67 0.67 0.66 0.66 0.69 0.75 0.79 0.83 0.89 0.96 1.01 1.02 1.04 1.06 1.03 1.02 1.07
0.31 0.34 0.37 0.42 0.43 0.45 0.48 0.48 0.47 0.47 0.48 0.50 0.52 0.53 0.55 0.57 0.60 0.59 0.57 0.59 0.66 0.69 0.62 0.65 0.73 0.76 0.68 0.67 0.72 0.75 0.76 0.79 0.84 0.90 0.94 0.99 1.04 1.07 1.08 1.09 1.11 1.13 1.15 1.17
0.35 0.37 0.39 0.43 0.45 0.46 0.47 0.47 0.48 0.47 0.47 0.49 0.51 0.51 0.52 0.53 0.53 0.54 0.54 0.55 0.58 0.65 0.65 0.66 0.68 0.71 0.67 0.66 0.69 0.72 0.73 0.77 0.84 0.90 0.93 0.99 1.04 1.08 1.10 1.09 1.08 1.13 1.19 1.23
0.36 0.36 0.37 0.38 0.39 0.40 0.43 0.45 0.48 0.52 0.52 0.51 0.53 0.52 0.52 0.54 0.54 0.53 0.53 0.55 0.58 0.61 0.65 0.70 0.73 0.73 0.72 0.75 0.77 0.72 0.71 0.73 0.74 0.78 0.85 0.91 1.00 1.08 1.11 1.14 1.17 1.21 1.26 1.31